GW0410 Weather Reports


time (UTC)temp
C
wind
direction
speed
KPH
gust
KPH
rain 1hr
cm
rain 24hr
cm
rain mn
cm
humidity
%
barometer
mb
20260506045028 12 153 0.0 0.0 0.00 0.00 0.00 82 1008.7
20260506044029 11 243 0.0 1.6 0.00 0.00 0.00 85 1008.6
20260506043047 11 0.0 0.0 0.00 0.00 0.00 87 1008.5
20260506042030 10 0.0 0.0 0.00 0.00 0.00 87 1008.6
20260506041102 10 0.0 0.0 0.00 0.00 0.00 87 1007.9
20260506040029 10 0.0 0.0 0.00 0.00 0.00 87 1007.9
20260506035034 10 258 0.0 0.0 0.00 0.00 0.00 86 1007.9
20260506034039 10 0.0 0.0 0.00 0.00 0.00 85 1008.0
20260506033021 10 0.0 0.0 0.00 0.00 0.00 85 1008.0
20260506032025 11 0.0 0.0 0.00 0.00 0.00 84 1008.0
20260506031020 11 0.0 0.0 0.00 0.00 0.00 83 1008.0
20260506030026 11 0.0 0.0 0.00 0.00 0.00 82 1007.6
20260506025036 11 0.0 0.0 0.00 0.00 0.00 81 1007.7
20260506024026 12 0.0 0.0 0.00 0.00 0.00 80 1008.1
20260506023025 12 0.0 0.0 0.00 0.00 0.00 79 1007.8
20260506022023 12 0.0 0.0 0.00 0.00 0.00 79 1007.8
20260506021047 12 252 0.0 3.2 0.00 0.00 0.00 79 1007.5
20260506020040 12 0.0 0.0 0.00 0.00 0.00 78 1007.8
20260506015034 13 0.0 0.0 0.00 0.00 0.00 77 1007.8
20260506014043 13 250 0.0 0.0 0.00 0.00 0.00 76 1007.5
20260506013044 13 252 0.0 1.6 0.00 0.00 0.00 76 1007.5
20260506012023 13 274 0.0 1.6 0.00 0.00 0.00 75 1007.4
20260506011020 13 244 0.0 6.4 0.00 0.00 0.00 75 1007.4
20260506010040 13 276 0.0 0.0 0.00 0.00 0.00 74 1007.1
20260506005027 13 0.0 0.0 0.00 0.00 0.00 73 1007.0
20260506004028 13 0.0 0.0 0.00 0.00 0.00 72 1007.0
20260506003034 13 254 0.0 0.0 0.00 0.00 0.00 72 1007.0
20260506002023 13 303 0.0 0.0 0.00 0.00 0.00 72 1007.0
20260506001034 14 154 0.0 0.0 0.00 0.00 0.00 71 1007.0
20260506000025 14 153 0.0 0.0 0.00 0.00 0.00 70 1006.7
20260505235026 15 170 1.6 9.7 0.00 0.00 0.00 69 1006.8
20260505234031 15 162 1.6 4.8 0.00 0.00 0.00 69 1006.8
20260505233028 15 166 0.0 4.8 0.00 0.00 0.00 68 1006.8
20260505232034 15 190 0.0 4.8 0.00 0.00 0.00 68 1006.8
20260505231028 15 205 0.0 4.8 0.00 0.00 0.00 67 1007.1
20260505230022 15 140 0.0 4.8 0.00 0.00 0.00 68 1006.8
20260505225031 15 168 0.0 0.0 0.00 0.00 0.00 68 1006.7
20260505224110 15 144 0.0 4.8 0.00 0.00 0.00 68 1007.0
20260505223020 15 143 0.0 1.6 0.00 0.00 0.00 67 1007.0
20260505222022 15 117 0.0 3.2 0.00 0.00 0.00 68 1007.0
20260505221021 15 336 0.0 0.0 0.00 0.00 0.00 67 1007.0
20260505220031 15 219 0.0 0.0 0.00 0.00 0.00 66 1007.0
20260505215024 15 2 0.0 3.2 0.00 0.00 0.00 66 1007.0
20260505214022 15 168 0.0 3.2 0.00 0.00 0.00 66 1007.0
20260505213022 15 302 0.0 4.8 0.00 0.00 0.00 67 1007.0
20260505212027 15 287 0.0 0.0 0.00 0.00 0.00 65 1006.9
20260505211021 15 244 0.0 3.2 0.00 0.00 0.00 64 1007.0
20260505210125 16 161 0.0 0.0 0.00 0.00 0.00 62 1007.0
20260505205028 16 198 0.0 1.6 0.00 0.00 0.00 62 1007.0
20260505204052 16 213 0.0 4.8 0.00 0.00 0.00 60 1007.0
20260505203022 16 298 0.0 1.6 0.00 0.00 0.00 60 1007.0
20260505202027 16 256 0.0 3.2 0.00 0.00 0.00 59 1006.9
20260505201048 16 166 0.0 0.0 0.00 0.00 0.00 58 1006.9
20260505200052 17 178 0.0 4.8 0.00 0.00 0.00 56 1007.3
20260505195045 17 160 1.6 11.3 0.00 0.00 0.00 54 1007.3
20260505194021 17 129 1.6 4.8 0.00 0.00 0.00 54 1007.0
20260505193022 17 165 0.0 4.8 0.00 0.00 0.00 54 1007.0
20260505192022 17 102 1.6 6.4 0.00 0.00 0.00 53 1006.9
20260505191023 18 160 1.6 6.4 0.00 0.00 0.00 52 1006.9
20260505190023 18 130 3.2 6.4 0.00 0.00 0.00 52 1007.0
20260505185028 18 186 3.2 8.0 0.00 0.00 0.00 51 1006.9
20260505184047 19 168 4.8 11.3 0.00 0.00 0.00 50 1006.9
20260505183113 19 176 3.2 11.3 0.00 0.00 0.00 50 1006.9
20260505182132 20 181 3.2 9.7 0.00 0.00 0.00 49 1006.7
20260505181022 20 189 4.8 9.7 0.00 0.00 0.00 48 1006.4
20260505180031 20 169 4.8 9.7 0.00 0.00 0.00 48 1006.4
20260505175027 21 166 3.2 9.7 0.00 0.00 0.00 47 1006.2
20260505174029 21 177 1.6 6.4 0.00 0.00 0.00 46 1006.3
20260505173030 22 182 4.8 17.7 0.00 0.00 0.00 45 1006.3
20260505172021 22 184 1.6 4.8 0.00 0.00 0.00 44 1006.2
20260505171059 23 173 1.6 6.4 0.00 0.00 0.00 43 1005.6
20260505170047 23 212 3.2 11.3 0.00 0.00 0.00 42 1006.0
20260505165101 23 167 4.8 12.9 0.00 0.00 0.00 41 1005.9
20260505164028 24 202 1.6 8.0 0.00 0.00 0.00 40 1006.0
20260505163029 25 174 4.8 9.7 0.00 0.00 0.00 39 1006.0
20260505162028 25 169 6.4 12.9 0.00 0.00 0.00 38 1006.0
20260505161021 26 192 1.6 6.4 0.00 0.00 0.00 38 1006.0
20260505153052 26 146 3.2 11.3 0.00 0.00 0.00 37 1006.4
20260505152021 27 182 3.2 6.4 0.00 0.00 0.00 35 1006.4
20260505151053 28 138 3.2 11.3 0.00 0.00 0.00 33 1006.8
20260505125021 26 177 1.6 8.0 0.00 0.00 0.00 36 1008.6
20260505124024 26 148 4.8 12.9 0.00 0.00 0.00 37 1008.5
20260505123024 26 152 3.2 8.0 0.00 0.00 0.00 37 1008.8
20260505122027 24 184 3.2 11.3 0.00 0.00 0.00 38 1008.8
20260505121028 24 145 1.6 6.4 0.00 0.00 0.00 40 1008.5
20260505120027 25 158 4.8 12.9 0.00 0.00 0.00 40 1008.8
20260505115022 25 195 6.4 12.9 0.00 0.00 0.00 38 1008.8
20260505114028 25 125 3.2 6.4 0.00 0.00 0.00 39 1008.9
20260505113045 25 111 4.8 9.7 0.00 0.00 0.00 41 1008.9
20260505112028 25 142 3.2 8.0 0.00 0.00 0.00 39 1008.9
20260505111026 26 201 3.2 11.3 0.00 0.00 0.00 38 1009.2
20260505102043 24 170 3.2 9.7 0.00 0.00 0.00 42 1009.2
20260505101022 25 201 3.2 8.0 0.00 0.00 0.00 41 1009.2
20260505100533 24 221 1.6 9.7 0.00 0.00 0.00 42 1009.6
20260505095034 25 203 3.2 12.9 0.00 0.00 0.00 42 1009.6
20260505094027 23 234 1.6 4.8 0.00 0.00 0.00 42 1009.9
20260505093025 23 122 3.2 9.7 0.00 0.00 0.00 44 1009.9
20260505092021 22 180 0.0 4.8 0.00 0.00 0.00 46 1009.8
20260505091025 22 197 3.2 12.9 0.00 0.00 0.00 46 1010.1
20260505090027 22 193 1.6 6.4 0.00 0.00 0.00 46 1010.1
20260505085022 21 225 3.2 14.5 0.00 0.00 0.00 46 1010.2
20260505084027 21 170 1.6 6.4 0.00 0.00 0.00 47 1010.2
20260505083028 21 181 4.8 12.9 0.00 0.00 0.00 45 1010.2
20260505082028 21 181 1.6 8.0 0.00 0.00 0.00 47 1010.2
20260505081027 20 210 1.6 6.4 0.00 0.00 0.00 49 1010.2
20260505080028 20 179 1.6 9.7 0.00 0.00 0.00 49 1010.5
20260505075024 20 194 1.6 9.7 0.00 0.00 0.00 50 1010.6
20260505074029 21 171 1.6 9.7 0.00 0.00 0.00 49 1010.3
20260505073025 21 214 0.0 4.8 0.00 0.00 0.00 50 1010.6
20260505072045 21 351 0.0 0.0 0.00 0.00 0.00 49 1010.7
20260505071043 20 192 0.0 3.2 0.00 0.00 0.00 49 1010.6
20260505070023 19 111 0.0 1.6 0.00 0.00 0.00 52 1010.6
20260505065026 17 0.0 0.0 0.00 0.00 0.00 56 1010.6
20260505064023 17 0.0 0.0 0.00 0.00 0.00 58 1010.8
20260505063030 17 0.0 0.0 0.00 0.00 0.00 61 1010.8
20260505062047 16 0.0 0.0 0.00 0.00 0.00 63 1010.9
20260505061045 14 0.0 0.0 0.00 0.00 0.00 68 1010.5
20260505060032 12 0.0 0.0 0.00 0.00 0.00 71 1010.4
20260505055034 12 0.0 0.0 0.00 0.00 0.00 75 1010.4
20260505054026 11 0.0 0.0 0.00 0.00 0.00 79 1010.7
20260505053112 10 0.0 0.0 0.00 0.00 0.00 82 1010.3
20260505052021 8 0.0 0.0 0.00 0.00 0.00 84 1010.3
20260505051028 8 0.0 0.0 0.00 0.00 0.00 84 1010.3